Location: Devargunta
(16.7631°N, 80.9077°E)
Time: 15:50:52
(UTC+00:00)

Palapa 6 Rocket - Pass Details

Date: 19 January 2021
Orbit: 485 x 1216 km, 22.8° (Epoch: 27 February)

Event Time Altitude Azimuth Distance (km) Brightness Sun altitude
Rises 14:12:44 0° 279° (W) 3,251 7.8 -25.3°
Reaches altitude 10° 14:15:35 10° 272° (W) 2,190 6.8 -26.0°
Maximum altitude 14:20:16 37° 205° (SSW) 958 4.2 -27.0°
Enters shadow 14:20:41 37° 191° (S) 962 4.1 -27.1°
